SEASAT 1 1 10967U 78064A 10210.69733916 -.00000080 00000-0 17283-4 0 1778 2 10967 108.0142 093.3563 0002566 285.4920 074.5944 14.42212877683928 LANDSAT 4 1 13367U 82072A 10210.85977390 .00001237 00000-0 98042-4 0 4817 2 13367 098.1991 153.6567 0018391 056.5829 303.7168 15.02495208505722 LANDSAT 5 1 14780U 84021A 10211.64095185 .00000042 00000-0 19262-4 0 179 2 14780 098.1955 278.8547 0001891 299.8781 060.2242 14.57119293404863 COSMOS 1602 1 15331U 84105A 10210.66007954 .00000841 00000-0 62661-4 0 1442 2 15331 082.5231 242.9285 0012496 280.3117 079.6698 15.01620499403179 SPOT 1 1 16613U 86019A 10210.69221651 +.00000124 +00000-0 +32691-4 0 07841 2 16613 098.7044 085.0011 0151063 249.7901 108.7028 14.60958631961863 COSMOS 1766 1 16881U 86055A 10210.77878327 .00000048 00000-0 16102-5 0 7536 2 16881 082.5131 302.1466 0013869 000.4810 359.6432 14.99806434303307 MOS 1A (MOMO 1) 1 17527U 87018A 10210.85041705 -.00000260 00000-0 -14174-3 0 4603 2 17527 099.0118 170.8981 0010222 029.3692 330.8046 14.01946875197088 IRS 1A 1 18960U 88021A 10210.48957995 +.00000138 +00000-0 +13321-3 0 09145 2 18960 099.3368 182.1500 0013959 210.5276 149.5089 13.96439395043534 OKEAN 1 1 19274U 88056A 10211.61795930 .00000596 00000-0 49448-4 0 810 2 19274 082.5034 055.9945 0014273 193.0317 167.0523 14.96972964197845 SPOT 2 1 20436U 90005A 10211.63343474 .00000179 00000-0 40111-4 0 3899 2 20436 098.6351 303.0309 0156154 121.3004 240.3598 14.62013948 65224 MOS 1B (MOMO 1B) 1 20478U 90013A 10210.86469611 -.00000216 00000-0 -12867-3 0 370 2 20478 098.9525 164.6180 0006109 120.6593 239.5177 13.94976711963144 OKEAN 2 1 20510U 90018A 10210.60096112 .00000304 00000-0 27484-4 0 4503 2 20510 082.5140 052.3582 0014845 144.3250 215.8963 14.91913491105659 OKEAN 3 1 21397U 91039A 10210.51773501 +.00000254 +00000-0 +25556-4 0 00435 2 21397 082.5225 356.4779 0019291 336.4936 023.5396 14.86986062035405 ERS 1 1 21574U 91050A 10210.63685753 .00000085 00000-0 43325-4 0 8051 2 21574 098.1530 211.8707 0033130 288.3942 071.3621 14.35720773996552 IRS 1B 1 21688U 91061A 10210.57571171 +.00000060 +00000-0 +72136-4 0 08549 2 21688 098.7103 204.9444 0025748 080.5044 279.9013 13.96942650858501 TOPEX/POSEIDON 1 22076U 92052A 10210.71877512 -.00000038 +00000-0 +10000-3 0 05540 2 22076 066.0422 304.2003 0007648 267.4361 092.5767 12.80952739840447 SPOT 3 1 22823U 93061A 10210.58743183 -.00000001 +00000-0 +20292-4 0 06087 2 22823 098.6208 160.3742 0016120 277.0104 082.9237 14.18704472871911 OKEAN 4 1 23317U 94066A 10210.76672019 +.00000162 +00000-0 +16928-4 0 02995 2 23317 082.5435 314.1162 0023946 100.8507 259.5406 14.82840087852769 IRS P2 1 23323U 94068A 10211.75842083 -.00000005 00000-0 16318-4 0 6729 2 23323 098.4617 172.5154 0000939 077.8744 282.2537 14.23098567819915 RESURS O1 1 23342U 94074A 10210.76802327 -.00000125 +00000-0 -10478-4 0 09766 2 23342 098.0650 187.4506 0000585 069.3173 290.8098 14.76860231846352 ERS 2 1 23560U 95021A 10211.73804396 .00000024 00000-0 25284-4 0 4219 2 23560 098.5654 285.9445 0001358 080.0502 280.0823 14.32240963798690 SICH 1 1 23657U 95046A 10210.72590505 +.00000318 +00000-0 +37018-4 0 00956 2 23657 082.5290 095.2391 0025600 098.1933 262.2205 14.81784580804610 RADARSAT 1 23710U 95059A 10211.65559766 .00000044 00000-0 34040-4 0 5477 2 23710 098.5791 217.6670 0001186 089.5549 046.5399 14.29982318769183 IRS 1C 1 23751U 95072A 10211.70151620 .00000080 00000-0 54628-4 0 2347 2 23751 098.3603 199.2944 0001085 099.1140 268.6016 14.21871745757126 IRS B3 1 23827U 96017A 10210.88912696 -.00000001 +00000-0 +18633-4 0 09164 2 23827 098.4385 174.0836 0004003 117.5721 242.5860 14.21734963745059 TOMS EP 1 23940U 96037A 10210.70151548 +.00000116 +00000-0 +38831-4 0 04099 2 23940 097.9751 069.1160 0029476 172.2051 187.9614 14.52330871748578 ADEOS 1 24277U 96046A 10210.85552187 -.00000020 +00000-0 +88752-5 0 04164 2 24277 098.4182 165.1253 0001759 115.4484 244.6882 14.28621023727131 ORBVIEW 2 (SEASTAR) 1 24883U 97037A 10211.46808406 .00000021 00000-0 23475-4 0 1969 2 24883 098.3378 343.0194 0002525 017.8313 342.2968 14.32196223691953 IRS 1D 1 24971U 97057A 10211.76648837 -.00000076 00000-0 -12702-4 0 6218 2 24971 098.1982 232.0616 0054559 154.1706 206.2202 14.33003242671341 TRMM 1 25063U 97074A 10210.91505542 +.00005637 +00000-0 +79730-4 0 04219 2 25063 034.9634 161.6596 0001104 270.7989 089.2647 15.55782213723646 SPOT 4 1 25260U 98017A 10211.73361293 .00000053 00000-0 45000-4 0 4412 2 25260 098.6554 281.5907 0001593 102.2740 257.8615 14.20060608640315 RESURS O1-N4 1 25394U 98043A 10210.85201801 -.00000004 +00000-0 +15934-4 0 05667 2 25394 098.3047 226.6090 0002505 087.9690 272.1776 14.24206760626426 FASAT B 1 25395U 98043B 10210.90433644 -.00000001 +00000-0 +17253-4 0 08044 2 25395 098.3022 225.3858 0003858 086.8244 273.3379 14.24396308626489 TMSAT 1 25396U 98043C 10210.87536800 +.00000006 +00000-0 +20210-4 0 07601 2 25396 098.3077 221.9804 0003462 108.0421 252.1134 14.23808532626310 TECHSAT 1B 1 25397U 98043D 10210.56534532 -.00000062 +00000-0 -95457-5 0 02489 2 25397 098.3127 215.6830 0002106 118.4957 241.6424 14.23181520626078 ROCSAT 1 1 25616U 99002A 10210.45871680 .00000455 00000-0 36665-4 0 1562 2 25616 034.9635 224.4579 0046569 074.0189 286.5641 15.00869105628647 SUNSAT 1 25636U 99008C 10210.71948095 -.00000001 +00000-0 +79036-5 0 06703 2 25636 096.4867 302.4117 0148630 012.1817 348.2918 14.43508760601891 LANDSAT 7 1 25682U 99020A 10211.67654478 -.00000040 00000-0 12730-5 0 1204 2 25682 098.2090 279.3342 0001617 090.4246 269.7139 14.57112541600568 OSCAR 36 (UOSAT 12) 1 25693U 99021A 10210.79332413 -.00000069 00000-0 10314-4 0 2646 2 25693 064.5602 303.5402 0039220 305.0787 054.6640 14.78809845608118 KITSAT 3 1 25756U 99029A 10210.61388444 -.00000042 +00000-0 +16308-5 0 02652 2 25756 098.6363 061.1200 0014324 017.4896 342.6794 14.52585739592304 TUBSAT 1 25757U 99029B 10211.62313000 -.00000012 00000-0 90895-5 0 985 2 25757 098.6727 052.9942 0014916 045.3791 314.8637 14.50865337591939 IRS P4 (OCEANSAT 1) 1 25758U 99029C 10210.78627052 +.00000770 +00000-0 +20627-3 0 05223 2 25758 098.2717 304.0524 0001873 085.4918 274.6500 14.50866275591963 QUIKSCAT 1 25789U 99034A 10210.60300688 +.00000005 +00000-0 +19981-4 0 07750 2 25789 098.6304 039.3023 0001068 109.1160 251.0136 14.26810478578555 OKEAN O 1 25860U 99039A 10210.71785036 .00000046 00000-0 14481-4 0 591 2 25860 097.8355 181.9779 0000960 046.1245 314.0039 14.73651322593167 IKONOS 2 1 25919U 99051A 10211.72601007 .00000040 00000-0 16448-4 0 4365 2 25919 098.1114 285.9438 0000805 105.1638 254.9645 14.64445064579855 CBERS 1 1 25940U 99057A 10210.56582972 +.00000058 +00000-0 +35156-4 0 06419 2 25940 098.1762 198.6956 0004301 312.4383 047.6432 14.34495166565219 TERRA 1 25994U 99068A 10211.76260706 .00000068 00000-0 25167-4 0 125 2 25994 098.2026 285.7376 0000977 111.7805 248.3484 14.57122448564659 KOMPSAT 1 26032U 99070A 10211.75247898 .00000151 00000-0 36095-4 0 1157 2 26032 097.8635 081.4655 0005820 032.1770 327.9788 14.65725752567339 TIUNGSAT 1 1 26548U 00057D 10210.63334963 +.00000169 +00000-0 +38423-4 0 07570 2 26548 064.5550 259.5052 0031142 216.7409 143.1581 14.83526112532398 EO 1 1 26619U 00075A 10211.73413476 -.00001560 00000-0 -30076-3 0 3780 2 26619 098.1413 278.2597 0011584 107.3781 252.8637 14.62124101515969 SAC C 1 26620U 00075B 10210.89235400 -.00000015 +00000-0 +61233-5 0 00586 2 26620 097.8769 227.0995 0001412 098.9017 261.2307 14.56583857515026 EROS A1 1 26631U 00079A 10211.68863222 .00002087 00000-0 10192-3 0 1520 2 26631 097.4423 276.7953 0009121 013.7348 132.5752 15.19335590536513 QUICKBIRD 2 1 26953U 01047A 10211.68559671 .00003579 00000-0 91593-4 0 4629 2 26953 097.1063 282.6807 0001451 110.7625 036.2041 15.40040586493475 TES 1 26957U 01049A 10211.63436587 .00000708 00000-0 59747-4 0 4468 2 26957 097.6568 286.7310 0031712 237.1791 122.6413 15.00975771480477 JASON 1 26997U 01055A 10210.85023707 -.00000038 +00000-0 +10000-3 0 02180 2 26997 066.0543 303.7397 0007829 271.7783 088.2941 12.80942760404258 METEOR 3M 1 27001U 01056A 10210.63325084 -.00000027 +00000-0 +17752-4 0 06923 2 27001 099.2183 053.8191 0014442 058.0038 302.2508 13.68717408431250 BADR B 1 27003U 01056C 10210.65957423 -.00000023 00000-0 21154-4 0 5752 2 27003 099.2004 060.5083 0020991 057.9483 302.3698 13.70106600431752 MAROC TUBSAT 1 27004U 01056D 10210.58752069 +.00000024 +00000-0 +74373-4 0 05485 2 27004 099.1969 059.6493 0020578 058.9293 301.3865 13.70033866431711 ENVISAT 1 27386U 02009A 10211.78648378 .00000010 00000-0 19974-4 0 2902 2 27386 098.5491 278.2712 0001142 093.7383 266.3918 14.32248521439984 SPOT 5 1 27421U 02021A 10211.65635000 .00000169 00000-0 10000-3 0 3580 2 27421 098.7318 285.1440 0000785 089.2861 059.8107 14.20023021427134 AQUA 1 27424U 02022A 10210.88996999 -.00004738 +00000-0 -10427-2 0 07040 2 27424 098.1892 151.4890 0001152 047.7739 312.3499 14.57099950438131 HAIYANG 1 1 27430U 02024A 10211.76822213 .00000121 00000-0 63575-4 0 4102 2 27430 098.4260 270.9848 0008626 320.5426 039.5136 14.29771409428453 ALSAT 1 1 27559U 02054A 10211.78257652 .00000102 00000-0 25228-4 0 6843 2 27559 097.8825 078.9356 0024442 131.0920 229.2400 14.69409669409724 ADEOS 2 1 27597U 02056A 10210.67901345 +.00000020 +00000-0 +25725-4 0 02093 2 27597 098.4226 265.8247 0001082 115.6270 244.5020 14.26217537396878 ICESAT 1 27642U 03002A 10211.50141120 .00062802 43706-6 87480-4 0 6807 2 27642 094.0047 141.3835 0250489 147.3135 219.3482 15.67428541410641 ORBVIEW 3 1 27838U 03030A 10211.68637785 .00004022 00000-0 93395-4 0 7123 2 27838 097.0039 260.5170 0002049 069.8898 076.6175 15.42908434398330 IRS P6 1 28051U 03046A 10211.70340868 .00000155 00000-0 90542-4 0 9366 2 28051 098.6748 286.5110 0002956 060.1286 086.5211 14.21646317352152 CBERS 2 1 28057U 03049A 10211.62750244 .00000030 00000-0 24979-4 0 3883 2 28057 098.2281 250.9154 0001272 158.1242 201.9994 14.34941641354974 TANSUO 1 1 28220U 04012A 10210.62523239 +.00000257 +00000-0 +32805-4 0 05977 2 28220 097.4562 230.2978 0010595 284.0095 075.9970 14.88886664341035 ROCSAT 2 1 28254U 04018A 10211.72204125 .00000104 00000-0 10000-3 0 26 2 28254 099.0777 273.8464 0001683 167.6878 344.9105 14.00720415316715 AURA 1 28376U 04026A 10210.89539791 +.00000095 +00000-0 +31156-4 0 08671 2 28376 098.1885 153.5659 0001074 065.4190 294.7131 14.57119997321183 CARTOSAT-1 1 28649U 05017A 10211.64983477 -.00000554 00000-0 -62242-4 0 9058 2 28649 097.9152 284.2661 0001357 101.5796 258.5626 14.82626354283387 TOPSAT 1 28891U 05043B 10211.75894999 -.00000016 00000-0 60224-5 0 3222 2 28891 097.9977 093.4886 0017726 145.0356 215.2016 14.59822750253474 SINAH 1 1 28893U 05043D 10210.68959329 +.00000030 +00000-0 +15619-4 0 08300 2 28893 098.0021 093.7758 0016133 147.6005 212.6192 14.60120799253370 ALOS 1 28931U 06002A 10211.79665167 .00000187 00000-0 48872-4 0 522 2 28931 098.1519 285.7763 0001305 096.7177 263.4159 14.59574073240508 EROS B 1 29079U 06014A 10211.66710751 .00002240 00000-0 10968-3 0 8013 2 29079 097.4356 329.8796 0011475 070.7884 042.2440 15.19154051236503 YAOGAN 1 1 29092U 06015A 10210.75180500 +.00000386 +00000-0 +57315-4 0 05194 2 29092 097.8669 201.2782 0001412 074.9012 285.2357 14.80310975230063 RESURS DK-1 1 29228U 06021A 10211.63962202 .00001814 00000-0 40658-4 0 6412 2 29228 069.9341 001.7955 0159411 236.2190 122.3677 15.33628459230928 KOMPSAT 2 1 29268U 06031A 10211.76739062 .00000081 00000-0 25292-4 0 4619 2 29268 097.9976 097.1936 0016482 304.6169 055.3496 14.61808131213776 LAPAN-TUBSAT 1 29709U 07001A 10211.68437438 .00000025 00000-0 99057-5 0 9478 2 29709 097.7563 260.0198 0014523 038.2042 322.0204 14.80312367191915 CARTOSAT 2AT 1 29710U 07001B 10211.78085214 -.00000095 00000-0 -59157-5 0 9399 2 29710 097.9589 271.5369 0001787 067.0815 293.0553 14.78627212191762 HAIYANG 1B 1 31113U 07010A 10211.79179376 .00000030 00000-0 28631-4 0 6759 2 31113 098.5026 281.5934 0012904 307.1188 052.8818 14.29479020172311 SKYMED 1 1 31598U 07023A 10211.76678787 .00000376 00000-0 53708-4 0 5112 2 31598 097.8637 038.5046 0001447 089.5692 270.5687 14.82169005170143 TERRA SAR X 1 31698U 07026A 10211.76552083 -.00000317 00000-0 -11890-4 0 4882 2 31698 097.4459 218.3432 0001818 080.3740 279.7080 15.19146794173292 WORLDVIEW 1 1 32060U 07041A 10211.69870250 .00001107 00000-0 47874-4 0 1989 2 32060 097.3964 289.8146 0001600 109.2616 037.9627 15.24518326159322 CBERS 2B 1 32062U 07042A 10210.75232710 +.00000066 +00000-0 +35667-4 0 00519 2 32062 098.4537 286.2894 0032311 178.7600 181.3679 14.38574676150001 SKYMED 2 1 32376U 07059A 10211.66553456 -.00000314 00000-0 -32894-4 0 9234 2 32376 097.8641 038.4076 0001476 087.6092 272.5305 14.82165387142877 RADARSAT 2 1 32382U 07061A 10211.68412948 -.00000022 00000-0 82364-5 0 9059 2 32382 098.5780 218.5261 0001215 089.3703 001.6417 14.29982331137070 CARTOSAT 2A 1 32783U 08021A 10211.66418658 -.00004317 00000-0 -58118-3 0 5037 2 32783 097.8967 272.8002 0015871 165.9626 194.2065 14.78674622121692 IMS-1 1 32786U 08021D 10211.78115141 .00000227 00000-0 36741-4 0 9637 2 32786 097.8978 274.5083 0013463 138.7965 221.4257 14.80077255121827 GLAST 1 33053U 08029A 10210.83374139 +.00000279 +00000-0 +00000-0 0 05562 2 33053 025.5795 117.8839 0014686 132.4729 227.7092 15.05091742117360 JASON 2 1 33105U 08032A 10210.73023012 -.00000050 +00000-0 +46041-4 0 07057 2 33105 066.0432 304.4020 0007971 264.7646 095.2439 12.80929797098549 RAPIDEYE 2 1 33312U 08040A 10211.77051610 .00000061 00000-0 15058-4 0 1594 2 33312 097.9538 298.5336 0010807 225.0526 134.9805 14.79894905103638 RAPIDEYE 5 1 33313U 08040B 10211.72866482 .00000051 00000-0 13683-4 0 1503 2 33313 097.9531 297.8333 0019776 096.6730 263.6739 14.79893272103579 RAPIDEYE 1 1 33314U 08040C 10211.78426027 .00000050 00000-0 13706-4 0 1939 2 33314 097.9531 298.6321 0023344 239.3651 120.5259 14.79894347103628 RAPIDEYE 3 1 33315U 08040D 10211.75544521 .00000074 00000-0 16813-4 0 1306 2 33315 097.9511 297.9451 0012242 167.0802 193.0734 14.79894099103585 RAPIDEYE 4 1 33316U 08040E 10211.74152942 .00000067 00000-0 15856-4 0 1205 2 33316 097.9509 297.7967 0013657 113.4016 246.8641 14.79894737103578 HJ-1A 1 33320U 08041A 10211.65520493 .00000317 00000-0 54098-4 0 973 2 33320 097.9430 285.7617 0024127 205.4993 154.5041 14.75295398102117 HJ-1B 1 33321U 08041B 10211.75534464 .00000034 00000-0 12683-4 0 1340 2 33321 097.9458 285.9324 0042117 219.0153 140.8024 14.75277884102112 GEOEYE 1 1 33331U 08042A 10211.75899583 -.00000021 00000-0 50723-5 0 1095 2 33331 098.1112 284.7381 0010118 228.4270 131.6048 14.64452990101274 THEOS 1 33396U 08049A 10211.70167126 .00000169 00000-0 10000-3 0 8977 2 33396 098.6952 278.0697 0000967 097.4621 048.6964 14.20045793 94752 SKYMED 3 1 33412U 08054A 10211.65286727 -.00000143 00000-0 -11449-4 0 9463 2 33412 097.8639 038.3938 0001486 086.6123 273.5253 14.82166588 95332 YAOGAN 4 1 33446U 08061A 10211.66708628 -.00000352 00000-0 -44475-4 0 8565 2 33446 097.8702 287.5709 0014644 147.0910 213.1224 14.75351921 89431 YAOGAN 5 1 33456U 08064A 10211.65394470 .00001752 00000-0 68219-4 0 8479 2 33456 097.3360 284.7609 0012888 033.4205 115.5978 15.27247022 90312 YAOGAN 6 1 34839U 09021A 10210.87063036 +.00001175 +00000-0 +60200-4 0 04492 2 34839 097.5930 287.2539 0003280 098.9363 353.3099 15.18579480070365 RAZAKSAT 1 35578U 09037A 10211.61783235 .00000627 00000-0 14341-4 0 1508 2 35578 008.9884 292.8112 0016929 236.3333 123.5259 14.64986911 56021 DEIMOS 1 1 35681U 09041A 10211.65525098 .00000139 00000-0 31829-4 0 1220 2 35681 098.0914 109.1375 0001751 092.9621 267.1798 14.69374043 53767 OCEANSAT 2 1 35931U 09051A 10211.86440236 -.00219520 00000-0 00000+0 0 5944 2 35931 098.2793 308.3331 0003030 030.2791 329.9088 14.50487835 45036 WORLDVIEW 2 1 35946U 09055A 10211.65260366 .00000000 00000-0 14938-4 0 9039 2 35946 098.5454 287.9697 0002101 053.2311 306.9076 14.37177084 42369 SMOS 1 36036U 09059A 10210.57142708 -.00000043 +00000-0 +00000-0 0 02349 2 36036 098.4416 037.1086 0001007 086.1866 273.9438 14.39753506038785 YAOGAN 7 1 36110U 09069A 10211.78666765 -.00000051 00000-0 00000+0 0 7063 2 36110 097.8694 350.2367 0025265 271.3617 088.4690 14.76079333 34431